Terminal Aerodrome Forecast
Issued by NWS Charleston, WV

Current Version | Previous Version | Graphics & Text | Print | Product List | Glossary On
Versions: 1 2 3 4 5 6 7 8 9 10 11 12 13 14 15 16 17 18 19 20 21 22 23
000
FTUS41 KRLX 182328
TAFHTS
TAF
KHTS 182328Z 1900/1924 34005KT P6SM SCT080
     FM190300 23010G18KT 4SM -SHRA BKN025 OVC050
     FM190600 25012G28KT P6SM BKN040
     FM191500 29010G20KT P6SM OVC015
     FM191600 30009G19KT P6SM OVC020=

USA.gov is the U.S. government's official web portal to all federal, state and local government web resources and services.